Time,TemperatureF,DewpointF,PressureIn,WindDirection,WindDirectionDegrees,WindSpeedMPH,WindSpeedGustMPH,Humidity,HourlyPrecipIn,Conditions,Clouds,dailyrainin,SolarRadiationWatts/m^2,SoftwareType,DateUTC
2013-03-02 00:00:00,48.8,48.0,30.33,West,277,0.0,0.0,97,0.00,,---,0.00,0.00,VWS V14.01,2013-03-02 08:00:00,
2013-03-02 00:05:00,48.9,48.1,30.34,West,277,0.0,0.0,97,0.00,,---,0.00,0.00,VWS V14.01,2013-03-02 08:05:00,
2013-03-02 00:10:00,49.0,48.2,30.34,West,277,0.0,0.0,97,0.00,,---,0.00,0.00,VWS V14.01,2013-03-02 08:10:00,
2013-03-02 00:15:00,49.1,48.3,30.34,West,277,0.0,0.0,97,0.00,,---,0.00,0.00,VWS V14.01,2013-03-02 08:15:00,
2013-03-02 00:20:00,49.1,48.3,30.34,West,277,0.0,0.0,97,0.00,,---,0.00,0.00,VWS V14.01,2013-03-02 08:20:00,
2013-03-02 00:25:00,49.2,48.4,30.34,West,277,0.0,0.0,97,0.00,,---,0.00,0.00,VWS V14.01,2013-03-02 08:25:00,
2013-03-02 00:30:00,49.3,48.5,30.34,West,277,0.0,0.0,97,0.00,,---,0.00,0.00,VWS V14.01,2013-03-02 08:30:00,
2013-03-02 00:35:00,49.3,48.5,30.34,West,277,0.0,0.0,97,0.00,,---,0.00,0.00,VWS V14.01,2013-03-02 08:35:00,
2013-03-02 00:40:00,49.3,48.5,30.33,West,277,0.0,0.0,97,0.00,,---,0.00,0.00,VWS V14.01,2013-03-02 08:40:00,
2013-03-02 00:45:00,49.4,48.6,30.33,West,277,0.0,0.0,97,0.00,,---,0.00,0.00,VWS V14.01,2013-03-02 08:45:00,
2013-03-02 00:50:00,49.4,48.6,30.33,West,277,0.0,0.0,97,0.00,,---,0.00,0.00,VWS V14.01,2013-03-02 08:50:00,
2013-03-02 00:55:00,49.4,48.6,30.33,West,277,0.0,0.0,97,0.00,,---,0.00,0.00,VWS V14.01,2013-03-02 08:55:00,
2013-03-02 01:00:00,49.3,48.5,30.33,West,277,0.0,0.0,97,0.00,,---,0.00,0.00,VWS V14.01,2013-03-02 09:00:00,
2013-03-02 01:05:00,49.3,48.5,30.33,West,277,0.0,0.0,97,0.00,,---,0.00,0.00,VWS V14.01,2013-03-02 09:05:00,
2013-03-02 01:10:00,49.3,48.5,30.33,West,277,0.0,0.0,97,0.00,,---,0.00,0.00,VWS V14.01,2013-03-02 09:10:00,
2013-03-02 01:15:00,49.3,48.5,30.33,West,277,0.0,0.0,97,0.00,,---,0.00,0.00,VWS V14.01,2013-03-02 09:15:00,
2013-03-02 01:20:00,49.2,48.4,30.33,West,277,0.0,0.0,97,0.00,,---,0.00,0.00,VWS V14.01,2013-03-02 09:20:00,
2013-03-02 01:25:00,49.3,48.5,30.33,West,277,0.0,0.0,97,0.00,,---,0.00,0.00,VWS V14.01,2013-03-02 09:25:00,
2013-03-02 01:30:00,49.3,48.5,30.32,West,277,0.0,0.0,97,0.00,,---,0.00,0.00,VWS V14.01,2013-03-02 09:30:00,
2013-03-02 01:35:00,49.3,48.2,30.32,West,277,0.0,0.0,96,0.00,,---,0.00,0.00,VWS V14.01,2013-03-02 09:35:00,
2013-03-02 01:40:00,49.3,48.2,30.32,West,277,0.0,0.0,96,0.00,,---,0.00,0.00,VWS V14.01,2013-03-02 09:40:00,
2013-03-02 01:45:00,49.4,48.3,30.32,West,277,0.0,0.0,96,0.00,,---,0.00,0.00,VWS V14.01,2013-03-02 09:45:00,
2013-03-02 01:50:00,49.3,48.2,30.32,West,277,0.0,0.0,96,0.00,,---,0.00,0.00,VWS V14.01,2013-03-02 09:50:00,
2013-03-02 01:55:00,49.3,48.2,30.32,West,277,0.0,0.0,96,0.00,,---,0.00,0.00,VWS V14.01,2013-03-02 09:55:00,
2013-03-02 02:00:00,49.3,48.2,30.32,West,277,0.0,0.0,96,0.00,,---,0.00,0.00,VWS V14.01,2013-03-02 10:00:00,
2013-03-02 02:05:00,49.3,48.2,30.31,West,277,0.0,0.0,96,0.00,,---,0.00,0.00,VWS V14.01,2013-03-02 10:05:00,
2013-03-02 02:10:00,49.3,48.2,30.29,NNW,334,0.0,0.0,96,0.00,,---,0.00,0.00,VWS V14.01,2013-03-02 10:10:00,
2013-03-02 02:13:00,49.3,48.2,30.31,West,277,0.0,0.0,96,0.00,,---,0.00,0.00,VWS V14.01,2013-03-02 10:13:00,
2013-03-02 02:18:00,49.3,48.2,30.31,West,277,0.0,0.0,96,0.00,,---,0.00,0.00,VWS V14.01,2013-03-02 10:18:00,
2013-03-02 02:20:00,49.3,48.2,30.29,NNW,334,0.0,0.0,96,0.00,,---,0.00,0.00,VWS V14.01,2013-03-02 10:20:00,
2013-03-02 02:23:00,49.4,48.3,30.31,West,277,0.0,0.0,96,0.00,,---,0.00,0.00,VWS V14.01,2013-03-02 10:23:00,
2013-03-02 02:28:00,49.3,48.2,30.31,West,277,0.0,0.0,96,0.00,,---,0.00,0.00,VWS V14.01,2013-03-02 10:28:00,
2013-03-02 02:30:00,49.3,47.9,30.29,NNW,334,0.0,0.0,95,0.00,,---,0.00,0.00,VWS V14.01,2013-03-02 10:30:00,
2013-03-02 02:33:00,49.3,48.2,30.30,West,277,0.0,0.0,96,0.00,,---,0.00,0.00,VWS V14.01,2013-03-02 10:33:00,
2013-03-02 02:38:00,49.3,48.2,30.29,West,277,0.0,0.0,96,0.00,,---,0.00,0.00,VWS V14.01,2013-03-02 10:38:00,
2013-03-02 02:40:00,49.3,47.7,30.28,NNW,334,0.0,0.0,94,0.00,,---,0.00,0.00,VWS V14.01,2013-03-02 10:40:00,
2013-03-02 02:43:00,49.3,48.2,30.30,West,277,0.0,0.0,96,0.00,,---,0.00,0.00,VWS V14.01,2013-03-02 10:43:00,
2013-03-02 02:48:00,49.3,48.2,30.28,NNW,333,0.0,0.0,96,0.00,,---,0.00,0.00,VWS V14.01,2013-03-02 10:48:00,
2013-03-02 02:50:00,49.2,47.5,30.27,NNW,334,0.0,0.0,94,0.00,,---,0.00,0.00,VWS V14.01,2013-03-02 10:50:00,
2013-03-02 02:53:00,49.4,48.3,30.29,NNW,334,0.0,0.0,96,0.00,,---,0.00,0.00,VWS V14.01,2013-03-02 10:53:00,
2013-03-02 02:58:00,49.3,48.2,30.29,NNW,334,0.0,0.0,96,0.00,,---,0.00,0.00,VWS V14.01,2013-03-02 10:58:00,
2013-03-02 03:00:00,48.8,46.9,30.27,NNW,334,0.0,0.0,93,0.00,,---,0.00,0.00,VWS V14.01,2013-03-02 11:00:00,
2013-03-02 03:03:00,49.3,48.2,30.29,NNW,334,0.0,0.0,96,0.00,,---,0.00,0.00,VWS V14.01,2013-03-02 11:03:00,
2013-03-02 03:08:00,49.3,48.2,30.28,NNW,334,0.0,0.0,96,0.00,,---,0.00,0.00,VWS V14.01,2013-03-02 11:08:00,
2013-03-02 03:10:00,48.3,46.4,30.27,NNW,334,0.0,0.0,93,0.00,,---,0.00,0.00,VWS V14.01,2013-03-02 11:10:00,
2013-03-02 03:13:00,49.3,48.2,30.29,NNW,334,0.0,0.0,96,0.00,,---,0.00,0.00,VWS V14.01,2013-03-02 11:13:00,
2013-03-02 03:18:00,49.3,48.2,30.29,NNW,334,0.0,0.0,96,0.00,,---,0.00,0.00,VWS V14.01,2013-03-02 11:18:00,
2013-03-02 03:20:00,48.2,46.3,30.27,NNW,334,0.0,0.0,93,0.00,,---,0.00,0.00,VWS V14.01,2013-03-02 11:20:00,
2013-03-02 03:23:00,49.3,47.9,30.29,NNW,334,0.0,0.0,95,0.00,,---,0.00,0.00,VWS V14.01,2013-03-02 11:23:00,
2013-03-02 03:28:00,49.3,47.9,30.29,NNW,334,0.0,0.0,95,0.00,,---,0.00,0.00,VWS V14.01,2013-03-02 11:28:00,
2013-03-02 03:30:00,48.3,46.4,30.27,NNW,334,0.0,0.0,93,0.00,,---,0.00,0.00,VWS V14.01,2013-03-02 11:30:00,
2013-03-02 03:33:00,49.3,47.7,30.28,NNW,334,0.0,0.0,94,0.00,,---,0.00,0.00,VWS V14.01,2013-03-02 11:33:00,
2013-03-02 03:38:00,49.3,47.7,30.28,NNW,334,0.0,0.0,94,0.00,,---,0.00,0.00,VWS V14.01,2013-03-02 11:38:00,
2013-03-02 03:40:00,48.2,46.3,30.27,NNW,334,0.0,0.0,93,0.00,,---,0.00,0.00,VWS V14.01,2013-03-02 11:40:00,
2013-03-02 03:43:00,49.3,47.7,30.27,NNW,334,0.0,0.0,94,0.00,,---,0.00,0.00,VWS V14.01,2013-03-02 11:43:00,
2013-03-02 03:48:00,49.1,47.5,30.27,NNW,334,0.0,0.0,94,0.00,,---,0.00,0.00,VWS V14.01,2013-03-02 11:48:00,
2013-03-02 03:50:00,48.1,46.2,30.26,NNW,334,0.0,0.0,93,0.00,,---,0.00,0.00,VWS V14.01,2013-03-02 11:50:00,
2013-03-02 03:53:00,49.0,47.1,30.27,NNW,334,0.0,0.0,93,0.00,,---,0.00,0.00,VWS V14.01,2013-03-02 11:53:00,
2013-03-02 03:58:00,48.7,46.8,30.27,NNW,334,0.0,0.0,93,0.00,,---,0.00,0.00,VWS V14.01,2013-03-02 11:58:00,
2013-03-02 04:00:00,48.1,45.9,30.26,NNW,334,0.0,0.0,92,0.00,,---,0.00,0.00,VWS V14.01,2013-03-02 12:00:00,
2013-03-02 04:03:00,48.5,46.6,30.28,NNW,334,0.0,0.0,93,0.00,,---,0.00,0.00,VWS V14.01,2013-03-02 12:03:00,
2013-03-02 04:08:00,48.3,46.4,30.27,NNW,334,0.0,0.0,93,0.00,,---,0.00,0.00,VWS V14.01,2013-03-02 12:08:00,
2013-03-02 04:10:00,48.2,46.0,30.26,NNW,334,0.0,0.0,92,0.00,,---,0.00,0.00,VWS V14.01,2013-03-02 12:10:00,
2013-03-02 04:13:00,48.2,46.3,30.27,NNW,334,0.0,0.0,93,0.00,,---,0.00,0.00,VWS V14.01,2013-03-02 12:13:00,
2013-03-02 04:18:00,48.2,46.3,30.27,NNW,334,0.0,0.0,93,0.00,,---,0.00,0.00,VWS V14.01,2013-03-02 12:18:00,
2013-03-02 04:20:00,48.2,46.0,30.26,NNW,334,0.0,0.0,92,0.00,,---,0.00,0.00,VWS V14.01,2013-03-02 12:20:00,
2013-03-02 04:23:00,48.2,46.3,30.27,NNW,334,0.0,0.0,93,0.00,,---,0.00,0.00,VWS V14.01,2013-03-02 12:23:00,
2013-03-02 04:28:00,48.3,46.4,30.27,NNW,334,0.0,0.0,93,0.00,,---,0.00,0.00,VWS V14.01,2013-03-02 12:28:00,
2013-03-02 04:30:00,48.0,45.8,30.26,NNW,334,0.0,0.0,92,0.00,,---,0.00,0.00,VWS V14.01,2013-03-02 12:30:00,
2013-03-02 04:33:00,48.2,46.3,30.27,NNW,334,0.0,0.0,93,0.00,,---,0.00,0.00,VWS V14.01,2013-03-02 12:33:00,
2013-03-02 04:38:00,48.2,46.3,30.27,NNW,334,0.0,0.0,93,0.00,,---,0.00,0.00,VWS V14.01,2013-03-02 12:38:00,
2013-03-02 04:40:00,47.8,45.6,30.26,NNW,334,0.0,0.0,92,0.00,,---,0.00,0.00,VWS V14.01,2013-03-02 12:40:00,
2013-03-02 04:43:00,48.2,46.3,30.26,NNW,334,0.0,0.0,93,0.00,,---,0.00,0.00,VWS V14.01,2013-03-02 12:43:00,
2013-03-02 04:48:00,48.1,46.2,30.26,NNW,334,0.0,0.0,93,0.00,,---,0.00,0.00,VWS V14.01,2013-03-02 12:48:00,
2013-03-02 04:50:00,47.6,45.4,30.26,NNW,334,0.0,0.0,92,0.00,,---,0.00,0.00,VWS V14.01,2013-03-02 12:50:00,
2013-03-02 04:53:00,48.1,46.2,30.26,NNW,334,0.0,0.0,93,0.00,,---,0.00,0.00,VWS V14.01,2013-03-02 12:53:00,
2013-03-02 04:58:00,48.1,45.9,30.27,NNW,334,0.0,0.0,92,0.00,,---,0.00,0.00,VWS V14.01,2013-03-02 12:58:00,
2013-03-02 05:00:00,47.4,45.2,30.26,NNW,334,0.0,0.0,92,0.00,,---,0.00,0.00,VWS V14.01,2013-03-02 13:00:00,
2013-03-02 05:03:00,48.2,46.0,30.26,NNW,334,0.0,0.0,92,0.00,,---,0.00,0.00,VWS V14.01,2013-03-02 13:03:00,
2013-03-02 05:08:00,48.2,46.0,30.26,NNW,334,0.0,0.0,92,0.00,,---,0.00,0.00,VWS V14.01,2013-03-02 13:08:00,
2013-03-02 05:10:00,47.1,45.2,30.26,NNW,334,0.0,0.0,93,0.00,,---,0.00,0.00,VWS V14.01,2013-03-02 13:10:00,
2013-03-02 05:13:00,48.2,46.0,30.26,NNW,334,0.0,0.0,92,0.00,,---,0.00,0.00,VWS V14.01,2013-03-02 13:13:00,
2013-03-02 05:18:00,48.1,45.9,30.26,NNW,334,0.0,0.0,92,0.00,,---,0.00,0.00,VWS V14.01,2013-03-02 13:18:00,
2013-03-02 05:20:00,47.0,45.1,30.25,NNW,334,0.0,0.0,93,0.00,,---,0.00,0.00,VWS V14.01,2013-03-02 13:20:00,
2013-03-02 05:23:00,48.1,45.9,30.26,NNW,334,0.0,0.0,92,0.00,,---,0.00,0.00,VWS V14.01,2013-03-02 13:23:00,
2013-03-02 05:28:00,48.0,45.8,30.26,NNW,334,0.0,0.0,92,0.00,,---,0.00,0.00,VWS V14.01,2013-03-02 13:28:00,
2013-03-02 05:30:00,46.6,45.0,30.25,NNW,334,0.0,0.0,94,0.00,,---,0.00,0.00,VWS V14.01,2013-03-02 13:30:00,
2013-03-02 05:33:00,47.9,45.7,30.26,NNW,334,0.0,0.0,92,0.00,,---,0.00,0.00,VWS V14.01,2013-03-02 13:33:00,
2013-03-02 05:38:00,47.8,45.6,30.26,NNW,334,0.0,0.0,92,0.00,,---,0.00,0.00,VWS V14.01,2013-03-02 13:38:00,
2013-03-02 05:40:00,46.6,45.0,30.24,NNW,334,0.0,0.0,94,0.00,,---,0.00,0.00,VWS V14.01,2013-03-02 13:40:00,
2013-03-02 05:43:00,47.7,45.5,30.26,NNW,334,0.0,0.0,92,0.00,,---,0.00,0.00,VWS V14.01,2013-03-02 13:43:00,
2013-03-02 05:48:00,47.6,45.4,30.26,NNW,334,0.0,0.0,92,0.00,,---,0.00,0.00,VWS V14.01,2013-03-02 13:48:00,
2013-03-02 05:50:00,46.4,44.8,30.23,NNW,334,0.0,0.0,94,0.00,,---,0.00,0.00,VWS V14.01,2013-03-02 13:50:00,
2013-03-02 05:53:00,47.5,45.3,30.26,NNW,334,0.0,0.0,92,0.00,,---,0.00,0.00,VWS V14.01,2013-03-02 13:53:00,
2013-03-02 05:58:00,47.4,45.2,30.26,NNW,334,0.0,0.0,92,0.00,,---,0.00,0.00,VWS V14.01,2013-03-02 13:58:00,
2013-03-02 06:00:00,46.2,44.6,30.24,NNW,334,0.0,0.0,94,0.00,,---,0.00,0.00,VWS V14.01,2013-03-02 14:00:00,
2013-03-02 06:03:00,47.2,45.3,30.26,NNW,334,0.0,0.0,93,0.00,,---,0.00,0.00,VWS V14.01,2013-03-02 14:03:00,
2013-03-02 06:08:00,47.1,45.2,30.26,NNW,334,0.0,0.0,93,0.00,,---,0.00,0.00,VWS V14.01,2013-03-02 14:08:00,
2013-03-02 06:10:00,45.9,44.5,30.24,NNW,334,0.0,0.0,95,0.00,,---,0.00,12.00,VWS V14.01,2013-03-02 14:10:00,
2013-03-02 06:13:00,47.0,45.1,30.25,NNW,334,0.0,0.0,93,0.00,,---,0.00,0.00,VWS V14.01,2013-03-02 14:13:00,
2013-03-02 06:18:00,47.0,45.1,30.25,NNW,334,0.0,0.0,93,0.00,,---,0.00,0.00,VWS V14.01,2013-03-02 14:18:00,
2013-03-02 06:20:00,45.8,44.5,30.23,NNW,334,0.0,0.0,95,0.00,,---,0.00,19.00,VWS V14.01,2013-03-02 14:20:00,
2013-03-02 06:22:00,46.8,44.9,30.25,NNW,334,0.0,0.0,93,0.00,,---,0.00,0.00,VWS V14.01,2013-03-02 14:22:00,
2013-03-02 06:27:00,46.7,45.1,30.25,NNW,334,0.0,0.0,94,0.00,,---,0.00,0.00,VWS V14.01,2013-03-02 14:27:00,
2013-03-02 06:30:00,46.0,44.7,30.24,NNW,334,0.0,0.0,95,0.00,,---,0.00,14.00,VWS V14.01,2013-03-02 14:30:00,
2013-03-02 06:33:00,46.6,45.0,30.24,NNW,334,0.0,0.0,94,0.00,,---,0.00,0.00,VWS V14.01,2013-03-02 14:33:00,
2013-03-02 06:37:00,46.6,45.0,30.24,NNW,334,0.0,0.0,94,0.00,,---,0.00,0.00,VWS V14.01,2013-03-02 14:37:00,
2013-03-02 06:40:00,46.2,45.1,30.24,NNW,334,0.0,0.0,96,0.00,,---,0.00,21.00,VWS V14.01,2013-03-02 14:40:00,
2013-03-02 06:42:00,46.5,44.9,30.24,NNW,334,0.0,0.0,94,0.00,,---,0.00,0.00,VWS V14.01,2013-03-02 14:42:00,
2013-03-02 06:47:00,46.4,44.8,30.24,NNW,334,0.0,0.0,94,0.00,,---,0.00,0.00,VWS V14.01,2013-03-02 14:47:00,
2013-03-02 06:50:00,46.5,45.4,30.23,NNW,334,0.0,0.0,96,0.00,,---,0.00,47.00,VWS V14.01,2013-03-02 14:50:00,
2013-03-02 06:52:00,46.2,44.6,30.23,NNW,334,0.0,0.0,94,0.00,,---,0.00,0.00,VWS V14.01,2013-03-02 14:52:00,
2013-03-02 06:58:00,46.2,44.6,30.24,NNW,334,0.0,0.0,94,0.00,,---,0.00,0.00,VWS V14.01,2013-03-02 14:58:00,
2013-03-02 07:00:00,46.7,45.6,30.24,NNW,334,0.0,0.0,96,0.00,,---,0.00,46.00,VWS V14.01,2013-03-02 15:00:00,
2013-03-02 07:03:00,46.1,44.5,30.24,NNW,334,0.0,0.0,94,0.00,,---,0.00,7.00,VWS V14.01,2013-03-02 15:03:00,
2013-03-02 07:08:00,45.9,44.5,30.24,NNW,334,0.0,0.0,95,0.00,,---,0.00,12.00,VWS V14.01,2013-03-02 15:08:00,
2013-03-02 07:10:00,47.1,46.0,30.24,NNW,334,0.0,0.0,96,0.00,,---,0.00,65.00,VWS V14.01,2013-03-02 15:10:00,
2013-03-02 07:13:00,45.8,44.5,30.23,NNW,334,0.0,0.0,95,0.00,,---,0.00,16.00,VWS V14.01,2013-03-02 15:13:00,
2013-03-02 07:18:00,45.8,44.5,30.24,NNW,334,0.0,0.0,95,0.00,,---,0.00,18.00,VWS V14.01,2013-03-02 15:18:00,
2013-03-02 07:20:00,47.5,46.1,30.24,NNW,334,0.0,0.0,95,0.00,,---,0.00,76.00,VWS V14.01,2013-03-02 15:20:00,
2013-03-02 07:23:00,45.9,44.5,30.24,NNW,334,0.0,0.0,95,0.00,,---,0.00,16.00,VWS V14.01,2013-03-02 15:23:00,
2013-03-02 07:28:00,46.0,44.7,30.24,NNW,334,0.0,0.0,95,0.00,,---,0.00,14.00,VWS V14.01,2013-03-02 15:28:00,
2013-03-02 07:30:00,47.8,46.4,30.25,NNW,334,0.0,0.0,95,0.00,,---,0.00,53.00,VWS V14.01,2013-03-02 15:30:00,
2013-03-02 07:33:00,46.1,44.8,30.24,NNW,334,0.0,0.0,95,0.00,,---,0.00,18.00,VWS V14.01,2013-03-02 15:33:00,
2013-03-02 07:38:00,46.2,45.1,30.24,NNW,334,0.0,0.0,96,0.00,,---,0.00,23.00,VWS V14.01,2013-03-02 15:38:00,
2013-03-02 07:40:00,48.1,46.5,30.25,SSE,157,0.0,0.0,94,0.00,,---,0.00,60.00,VWS V14.01,2013-03-02 15:40:00,
2013-03-02 07:43:00,46.4,45.3,30.24,NNW,334,0.0,0.0,96,0.00,,---,0.00,33.00,VWS V14.01,2013-03-02 15:43:00,
2013-03-02 07:48:00,46.5,45.4,30.23,NNW,334,0.0,0.0,96,0.00,,---,0.00,49.00,VWS V14.01,2013-03-02 15:48:00,
2013-03-02 07:50:00,48.4,46.8,30.25,SSE,157,0.0,0.0,94,0.00,,---,0.00,72.00,VWS V14.01,2013-03-02 15:50:00,
2013-03-02 07:53:00,46.6,45.5,30.24,NNW,334,0.0,0.0,96,0.00,,---,0.00,42.00,VWS V14.01,2013-03-02 15:53:00,
2013-03-02 07:58:00,46.8,45.7,30.24,NNW,334,0.0,0.0,96,0.00,,---,0.00,46.00,VWS V14.01,2013-03-02 15:58:00,
2013-03-02 08:00:00,48.6,47.0,30.25,NNW,333,0.0,0.0,94,0.00,,---,0.00,56.00,VWS V14.01,2013-03-02 16:00:00,
2013-03-02 08:03:00,47.0,45.9,30.24,NNW,334,0.0,0.0,96,0.00,,---,0.00,56.00,VWS V14.01,2013-03-02 16:03:00,
2013-03-02 08:08:00,47.1,46.0,30.24,NNW,334,0.0,0.0,96,0.00,,---,0.00,67.00,VWS V14.01,2013-03-02 16:08:00,
2013-03-02 08:10:00,48.7,46.8,30.25,South,186,0.0,0.0,93,0.00,,---,0.00,62.00,VWS V14.01,2013-03-02 16:10:00,
2013-03-02 08:13:00,47.3,45.9,30.24,NNW,334,0.0,0.0,95,0.00,,---,0.00,77.00,VWS V14.01,2013-03-02 16:13:00,
2013-03-02 08:18:00,47.5,46.1,30.24,NNW,334,0.0,0.0,95,0.00,,---,0.00,76.00,VWS V14.01,2013-03-02 16:18:00,
2013-03-02 08:20:00,48.9,47.0,30.25,South,186,0.0,0.0,93,0.00,,---,0.00,79.00,VWS V14.01,2013-03-02 16:20:00,
2013-03-02 08:23:00,47.7,46.3,30.24,NNW,334,0.0,0.0,95,0.00,,---,0.00,67.00,VWS V14.01,2013-03-02 16:23:00,
2013-03-02 08:27:00,47.8,46.4,30.25,NNW,334,0.0,0.0,95,0.00,,---,0.00,53.00,VWS V14.01,2013-03-02 16:27:00,
2013-03-02 08:30:00,49.0,47.1,30.25,South,186,0.0,0.0,93,0.00,,---,0.00,134.00,VWS V14.01,2013-03-02 16:30:00,
2013-03-02 08:32:00,48.0,46.4,30.25,NNW,334,0.0,0.0,94,0.00,,---,0.00,47.00,VWS V14.01,2013-03-02 16:32:00,
2013-03-02 08:37:00,48.1,46.5,30.25,SSE,157,0.0,0.0,94,0.00,,---,0.00,60.00,VWS V14.01,2013-03-02 16:37:00,
2013-03-02 08:40:00,49.4,47.8,30.25,South,186,0.0,0.0,94,0.00,,---,0.00,104.00,VWS V14.01,2013-03-02 16:40:00,
2013-03-02 08:42:00,48.2,46.6,30.25,SSE,157,0.0,0.0,94,0.00,,---,0.00,67.00,VWS V14.01,2013-03-02 16:42:00,
2013-03-02 08:47:00,48.4,46.8,30.25,SSE,157,0.0,0.0,94,0.00,,---,0.00,72.00,VWS V14.01,2013-03-02 16:47:00,
2013-03-02 08:50:00,49.5,47.8,30.25,South,170,0.0,0.0,94,0.00,,---,0.00,130.00,VWS V14.01,2013-03-02 16:50:00,
2013-03-02 08:52:00,48.5,46.9,30.25,SSE,157,0.0,0.0,94,0.00,,---,0.00,67.00,VWS V14.01,2013-03-02 16:52:00,
2013-03-02 08:57:00,48.6,47.0,30.25,NNW,333,0.0,0.0,94,0.00,,---,0.00,60.00,VWS V14.01,2013-03-02 16:57:00,
2013-03-02 09:00:00,49.7,48.0,30.25,SSE,163,0.0,0.0,94,0.00,,---,0.00,148.00,VWS V14.01,2013-03-02 17:00:00,
2013-03-02 09:02:00,48.7,46.8,30.25,South,186,0.0,0.0,93,0.00,,---,0.00,58.00,VWS V14.01,2013-03-02 17:02:00,
2013-03-02 09:07:00,48.8,46.9,30.25,South,186,0.0,0.0,93,0.00,,---,0.00,62.00,VWS V14.01,2013-03-02 17:07:00,
2013-03-02 09:10:00,50.1,48.4,30.25,SSE,163,0.0,0.0,94,0.00,,---,0.00,225.00,VWS V14.01,2013-03-02 17:10:00,
2013-03-02 09:12:00,48.8,47.2,30.25,South,186,0.0,0.0,94,0.00,,---,0.00,62.00,VWS V14.01,2013-03-02 17:12:00,
2013-03-02 09:17:00,48.9,47.0,30.25,South,186,0.0,0.0,93,0.00,,---,0.00,86.00,VWS V14.01,2013-03-02 17:17:00,
2013-03-02 09:20:00,50.6,48.9,30.25,South,171,0.0,0.0,94,0.00,,---,0.00,246.00,VWS V14.01,2013-03-02 17:20:00,
2013-03-02 09:22:00,48.9,47.0,30.25,South,186,0.0,0.0,93,0.00,,---,0.00,118.00,VWS V14.01,2013-03-02 17:22:00,
2013-03-02 09:27:00,49.0,47.1,30.25,South,186,0.0,0.0,93,0.00,,---,0.00,134.00,VWS V14.01,2013-03-02 17:27:00,
2013-03-02 09:30:00,50.8,48.8,30.24,South,171,0.0,0.0,93,0.00,,---,0.00,237.00,VWS V14.01,2013-03-02 17:30:00,
2013-03-02 09:32:00,49.1,47.5,30.25,South,186,0.0,0.0,94,0.00,,---,0.00,141.00,VWS V14.01,2013-03-02 17:32:00,
2013-03-02 09:37:00,49.4,47.8,30.26,South,186,0.0,0.0,94,0.00,,---,0.00,104.00,VWS V14.01,2013-03-02 17:37:00,
2013-03-02 09:40:00,51.1,48.9,30.24,South,171,0.0,0.0,92,0.00,,---,0.00,193.00,VWS V14.01,2013-03-02 17:40:00,
2013-03-02 09:42:00,49.5,47.8,30.26,South,174,0.0,0.0,94,0.00,,---,0.00,113.00,VWS V14.01,2013-03-02 17:42:00,
2013-03-02 09:47:00,49.5,47.8,30.25,South,170,0.0,0.0,94,0.00,,---,0.00,130.00,VWS V14.01,2013-03-02 17:47:00,
2013-03-02 09:50:00,51.2,49.0,30.24,SSE,168,0.0,0.0,92,0.00,,---,0.00,209.00,VWS V14.01,2013-03-02 17:50:00,
2013-03-02 09:53:00,49.5,47.8,30.25,SSE,163,0.0,0.0,94,0.00,,---,0.00,114.00,VWS V14.01,2013-03-02 17:53:00,
2013-03-02 09:58:00,49.7,48.0,30.25,SSE,163,0.0,0.0,94,0.00,,---,0.00,162.00,VWS V14.01,2013-03-02 17:58:00,
2013-03-02 10:00:00,51.5,49.3,30.24,South,174,0.0,0.0,92,0.00,,---,0.00,181.00,VWS V14.01,2013-03-02 18:00:00,
2013-03-02 10:03:00,49.8,48.2,30.25,SSE,163,0.0,0.0,94,0.00,,---,0.00,204.00,VWS V14.01,2013-03-02 18:03:00,
2013-03-02 10:08:00,50.1,48.4,30.25,SSE,163,0.0,0.0,94,0.00,,---,0.00,229.00,VWS V14.01,2013-03-02 18:08:00,
2013-03-02 10:10:00,51.7,49.5,30.24,South,173,0.0,0.0,92,0.00,,---,0.00,223.00,VWS V14.01,2013-03-02 18:10:00,
2013-03-02 10:13:00,50.3,48.6,30.25,SSE,163,0.0,0.0,94,0.00,,---,0.00,241.00,VWS V14.01,2013-03-02 18:13:00,
2013-03-02 10:18:00,50.6,48.9,30.25,South,171,0.0,0.0,94,0.00,,---,0.00,246.00,VWS V14.01,2013-03-02 18:18:00,
2013-03-02 10:20:00,51.8,49.6,30.23,South,172,0.0,0.0,92,0.00,,---,0.00,178.00,VWS V14.01,2013-03-02 18:20:00,
2013-03-02 10:23:00,50.7,48.8,30.25,South,171,0.0,0.0,93,0.00,,---,0.00,229.00,VWS V14.01,2013-03-02 18:23:00,
2013-03-02 10:28:00,50.9,49.0,30.24,South,171,0.0,0.0,93,0.00,,---,0.00,236.00,VWS V14.01,2013-03-02 18:28:00,
2013-03-02 10:30:00,52.0,49.5,30.24,SSE,168,0.0,0.0,91,0.00,,---,0.00,225.00,VWS V14.01,2013-03-02 18:30:00,
2013-03-02 10:33:00,51.0,49.0,30.24,South,171,0.0,0.0,93,0.00,,---,0.00,223.00,VWS V14.01,2013-03-02 18:33:00,
2013-03-02 10:38:00,51.1,48.9,30.24,South,171,0.0,0.0,92,0.00,,---,0.00,181.00,VWS V14.01,2013-03-02 18:38:00,
2013-03-02 10:40:00,52.3,49.8,30.24,SSW,200,0.0,0.0,91,0.00,,---,0.00,237.00,VWS V14.01,2013-03-02 18:40:00,
2013-03-02 10:42:00,51.1,48.9,30.24,South,169,0.0,0.0,92,0.00,,---,0.00,167.00,VWS V14.01,2013-03-02 18:42:00,
2013-03-02 10:47:00,51.2,49.0,30.24,SSE,168,0.0,0.0,92,0.00,,---,0.00,209.00,VWS V14.01,2013-03-02 18:47:00,
2013-03-02 10:50:00,52.6,49.8,30.23,South,185,0.0,0.0,90,0.00,,---,0.00,248.00,VWS V14.01,2013-03-02 18:50:00,
2013-03-02 10:52:00,51.3,49.1,30.24,South,174,0.0,0.0,92,0.00,,---,0.00,207.00,VWS V14.01,2013-03-02 18:52:00,
2013-03-02 10:57:00,51.4,49.2,30.24,South,174,0.0,0.0,92,0.00,,---,0.00,181.00,VWS V14.01,2013-03-02 18:57:00,
2013-03-02 11:00:00,52.6,49.5,30.24,SW,224,0.0,0.0,89,0.00,,---,0.00,251.00,VWS V14.01,2013-03-02 19:00:00,
2013-03-02 11:02:00,51.6,49.4,30.24,South,173,0.0,0.0,92,0.00,,---,0.00,176.00,VWS V14.01,2013-03-02 19:02:00,
2013-03-02 11:07:00,51.7,49.5,30.24,South,173,0.0,0.0,92,0.00,,---,0.00,221.00,VWS V14.01,2013-03-02 19:07:00,
2013-03-02 11:10:00,52.6,49.8,30.24,South,184,0.0,0.0,90,0.00,,---,0.00,214.00,VWS V14.01,2013-03-02 19:10:00,
2013-03-02 11:12:00,51.8,49.5,30.24,South,173,0.0,0.0,92,0.00,,---,0.00,183.00,VWS V14.01,2013-03-02 19:12:00,
2013-03-02 11:17:00,51.8,49.5,30.24,South,172,0.0,0.0,92,0.00,,---,0.00,186.00,VWS V14.01,2013-03-02 19:17:00,
2013-03-02 11:20:00,52.5,49.7,30.23,South,186,0.0,0.0,90,0.00,,---,0.00,221.00,VWS V14.01,2013-03-02 19:20:00,
2013-03-02 11:22:00,51.9,49.7,30.24,South,171,0.0,0.0,92,0.00,,---,0.00,195.00,VWS V14.01,2013-03-02 19:22:00,
2013-03-02 11:27:00,52.0,49.5,30.24,SSE,168,0.0,0.0,91,0.00,,---,0.00,225.00,VWS V14.01,2013-03-02 19:27:00,
2013-03-02 11:30:00,52.7,49.8,30.23,SSW,200,0.0,0.0,90,0.00,,---,0.00,220.00,VWS V14.01,2013-03-02 19:30:00,
2013-03-02 11:32:00,52.1,49.6,30.24,SSE,165,0.0,0.0,91,0.00,,---,0.00,202.00,VWS V14.01,2013-03-02 19:32:00,
2013-03-02 11:37:00,52.3,49.8,30.24,SSW,200,0.0,0.0,91,0.00,,---,0.00,239.00,VWS V14.01,2013-03-02 19:37:00,
2013-03-02 11:40:00,52.8,50.0,30.23,South,188,0.0,0.0,90,0.00,,---,0.00,211.00,VWS V14.01,2013-03-02 19:40:00,
2013-03-02 11:42:00,52.4,49.6,30.24,South,187,0.0,0.0,90,0.00,,---,0.00,227.00,VWS V14.01,2013-03-02 19:42:00,
2013-03-02 11:47:00,52.6,49.8,30.24,South,185,0.0,0.0,90,0.00,,---,0.00,243.00,VWS V14.01,2013-03-02 19:47:00,
2013-03-02 11:50:00,52.8,50.0,30.23,SSE,161,0.0,0.0,90,0.00,,---,0.00,162.00,VWS V14.01,2013-03-02 19:50:00,
2013-03-02 11:52:00,52.5,49.4,30.24,SW,215,0.0,0.0,89,0.00,,---,0.00,236.00,VWS V14.01,2013-03-02 19:52:00,
2013-03-02 11:57:00,52.6,49.8,30.24,SSE,166,0.0,0.0,90,0.00,,---,0.00,251.00,VWS V14.01,2013-03-02 19:57:00,
2013-03-02 12:00:00,52.8,50.0,30.23,SSW,193,0.0,0.0,90,0.00,,---,0.00,165.00,VWS V14.01,2013-03-02 20:00:00,
2013-03-02 12:02:00,52.5,49.4,30.24,South,187,0.0,0.0,89,0.00,,---,0.00,221.00,VWS V14.01,2013-03-02 20:02:00,
2013-03-02 12:07:00,52.6,49.8,30.24,South,184,0.0,0.0,90,0.00,,---,0.00,214.00,VWS V14.01,2013-03-02 20:07:00,
2013-03-02 12:10:00,53.0,49.8,30.23,South,181,0.0,0.0,89,0.00,,---,0.00,120.00,VWS V14.01,2013-03-02 20:10:00,
2013-03-02 12:12:00,52.6,49.5,30.23,South,184,0.0,0.0,89,0.00,,---,0.00,230.00,VWS V14.01,2013-03-02 20:12:00,
2013-03-02 12:17:00,52.5,49.7,30.23,South,190,0.0,0.0,90,0.00,,---,0.00,221.00,VWS V14.01,2013-03-02 20:17:00,
2013-03-02 12:20:00,52.9,49.8,30.23,SSW,203,0.0,0.0,89,0.00,,---,0.00,83.00,VWS V14.01,2013-03-02 20:20:00,
2013-03-02 12:22:00,52.5,49.7,30.23,SSW,206,0.0,0.0,90,0.00,,---,0.00,225.00,VWS V14.01,2013-03-02 20:22:00,
2013-03-02 12:27:00,52.7,49.8,30.23,South,186,0.0,0.0,90,0.00,,---,0.00,220.00,VWS V14.01,2013-03-02 20:27:00,
2013-03-02 12:30:00,53.0,50.2,30.23,SSW,207,0.0,0.0,90,0.00,,---,0.00,70.00,VWS V14.01,2013-03-02 20:30:00,
2013-03-02 12:32:00,52.7,49.8,30.23,SSW,209,0.0,0.0,90,0.00,,---,0.00,220.00,VWS V14.01,2013-03-02 20:32:00,
2013-03-02 12:37:00,52.8,50.0,30.23,South,189,0.0,0.0,90,0.00,,---,0.00,211.00,VWS V14.01,2013-03-02 20:37:00,
2013-03-02 12:40:00,52.8,49.7,30.23,SSW,205,0.0,0.0,89,0.00,,---,0.00,37.00,VWS V14.01,2013-03-02 20:40:00,
2013-03-02 12:42:00,52.7,49.8,30.23,SE,144,0.0,0.0,90,0.00,,---,0.00,172.00,VWS V14.01,2013-03-02 20:42:00,
2013-03-02 12:47:00,52.8,50.0,30.23,SSE,161,0.0,0.0,90,0.00,,---,0.00,165.00,VWS V14.01,2013-03-02 20:47:00,
2013-03-02 12:50:00,52.7,49.8,30.22,SW,214,0.0,0.0,90,0.00,,---,0.00,35.00,VWS V14.01,2013-03-02 20:50:00,
2013-03-02 12:52:00,52.7,49.5,30.23,SSW,193,0.0,0.0,89,0.00,,---,0.00,127.00,VWS V14.01,2013-03-02 20:52:00,
2013-03-02 12:57:00,52.9,50.0,30.23,SSW,193,0.0,0.0,90,0.00,,---,0.00,165.00,VWS V14.01,2013-03-02 20:57:00,
2013-03-02 13:00:00,52.6,49.8,30.23,SW,234,0.0,0.0,90,0.00,,---,0.00,37.00,VWS V14.01,2013-03-02 21:00:00,
2013-03-02 13:02:00,53.0,49.8,30.23,SSW,195,0.0,0.0,89,0.00,,---,0.00,149.00,VWS V14.01,2013-03-02 21:02:00,
2013-03-02 13:07:00,53.0,49.8,30.23,SSW,203,0.0,0.0,89,0.00,,---,0.00,120.00,VWS V14.01,2013-03-02 21:07:00,
2013-03-02 13:10:00,51.7,48.9,30.23,West,277,0.0,0.0,90,0.01,,---,0.01,28.00,VWS V14.01,2013-03-02 21:10:00,
2013-03-02 13:12:00,53.0,49.8,30.23,SW,232,0.0,0.0,89,0.00,,---,0.00,76.00,VWS V14.01,2013-03-02 21:12:00,
2013-03-02 13:17:00,52.9,49.8,30.23,SSW,203,0.0,0.0,89,0.00,,---,0.00,81.00,VWS V14.01,2013-03-02 21:17:00,
2013-03-02 13:20:00,50.7,48.2,30.23,West,274,0.0,0.0,91,0.01,,---,0.01,44.00,VWS V14.01,2013-03-02 21:20:00,
2013-03-02 13:22:00,53.0,50.2,30.22,South,177,0.0,0.0,90,0.00,,---,0.00,93.00,VWS V14.01,2013-03-02 21:22:00,
2013-03-02 13:27:00,53.0,50.2,30.23,SSW,207,0.0,0.0,90,0.00,,---,0.00,67.00,VWS V14.01,2013-03-02 21:27:00,
2013-03-02 13:30:00,50.4,48.5,30.23,SW,223,0.0,0.0,93,0.01,,---,0.01,49.00,VWS V14.01,2013-03-02 21:30:00,
2013-03-02 13:33:00,53.0,49.8,30.23,South,176,0.0,0.0,89,0.00,,---,0.00,46.00,VWS V14.01,2013-03-02 21:33:00,
2013-03-02 13:38:00,52.8,49.7,30.23,SSW,205,0.0,0.0,89,0.00,,---,0.00,37.00,VWS V14.01,2013-03-02 21:38:00,
2013-03-02 13:40:00,50.3,48.4,30.22,SW,232,0.0,0.0,93,0.01,,---,0.01,51.00,VWS V14.01,2013-03-02 21:40:00,
2013-03-02 13:43:00,52.8,50.0,30.22,SSW,194,0.0,0.0,90,0.00,,---,0.00,39.00,VWS V14.01,2013-03-02 21:43:00,
2013-03-02 13:48:00,52.8,50.0,30.22,South,190,0.0,0.0,90,0.00,,---,0.00,35.00,VWS V14.01,2013-03-02 21:48:00,
2013-03-02 13:50:00,50.3,48.6,30.22,SW,221,0.0,0.0,94,0.01,,---,0.01,51.00,VWS V14.01,2013-03-02 21:50:00,
2013-03-02 13:53:00,52.7,49.8,30.22,SSW,205,0.0,0.0,90,0.00,,---,0.00,37.00,VWS V14.01,2013-03-02 21:53:00,
2013-03-02 13:58:00,52.6,49.8,30.23,WSW,248,0.0,0.0,90,0.00,,---,0.00,32.00,VWS V14.01,2013-03-02 21:58:00,
2013-03-02 14:00:00,50.2,48.5,30.22,SW,221,0.0,0.0,94,0.01,,---,0.01,84.00,VWS V14.01,2013-03-02 22:00:00,
2013-03-02 14:03:00,52.4,49.8,30.23,WSW,250,0.0,0.0,91,0.00,,---,0.00,21.00,VWS V14.01,2013-03-02 22:03:00,
2013-03-02 14:08:00,51.6,48.8,30.23,WSW,244,0.0,0.0,90,0.01,,---,0.01,30.00,VWS V14.01,2013-03-02 22:08:00,
2013-03-02 14:10:00,50.4,49.0,30.22,SW,221,0.0,0.0,95,0.01,,---,0.01,58.00,VWS V14.01,2013-03-02 22:10:00,
2013-03-02 14:13:00,51.0,48.5,30.23,West,279,0.0,0.0,91,0.01,,---,0.01,35.00,VWS V14.01,2013-03-02 22:13:00,
2013-03-02 14:18:00,50.7,48.5,30.23,West,281,0.0,0.0,92,0.01,,---,0.01,44.00,VWS V14.01,2013-03-02 22:18:00,
2013-03-02 14:20:00,50.4,48.7,30.22,SW,221,0.0,0.0,94,0.00,,---,0.01,69.00,VWS V14.01,2013-03-02 22:20:00,
2013-03-02 14:22:00,50.5,48.3,30.23,SW,236,0.0,0.0,92,0.01,,---,0.01,56.00,VWS V14.01,2013-03-02 22:22:00,
2013-03-02 14:27:00,50.4,48.5,30.23,SW,223,0.0,0.0,93,0.01,,---,0.01,49.00,VWS V14.01,2013-03-02 22:27:00,
2013-03-02 14:30:00,50.5,48.8,30.22,SW,221,0.0,0.0,94,0.00,,---,0.01,98.00,VWS V14.01,2013-03-02 22:30:00,
2013-03-02 14:32:00,50.4,48.5,30.22,SSW,207,0.0,0.0,93,0.01,,---,0.01,56.00,VWS V14.01,2013-03-02 22:32:00,
2013-03-02 14:37:00,50.3,48.4,30.22,SW,226,0.0,0.0,93,0.01,,---,0.01,51.00,VWS V14.01,2013-03-02 22:37:00,
2013-03-02 14:40:00,50.7,49.0,30.22,SW,218,0.0,0.0,94,0.00,,---,0.01,79.00,VWS V14.01,2013-03-02 22:40:00,
2013-03-02 14:42:00,50.3,48.6,30.22,SW,221,0.0,0.0,94,0.01,,---,0.01,49.00,VWS V14.01,2013-03-02 22:42:00,
2013-03-02 14:47:00,50.2,48.5,30.22,SW,221,0.0,0.0,94,0.01,,---,0.01,51.00,VWS V14.01,2013-03-02 22:47:00,
2013-03-02 14:50:00,50.9,49.5,30.22,SW,218,0.0,0.0,95,0.00,,---,0.01,98.00,VWS V14.01,2013-03-02 22:50:00,
2013-03-02 14:52:00,50.2,48.5,30.22,SW,221,0.0,0.0,94,0.01,,---,0.01,70.00,VWS V14.01,2013-03-02 22:52:00,
2013-03-02 14:57:00,50.2,48.5,30.22,SW,221,0.0,0.0,94,0.01,,---,0.01,86.00,VWS V14.01,2013-03-02 22:57:00,
2013-03-02 15:00:00,50.9,49.2,30.21,SW,216,0.0,0.0,94,0.00,,---,0.01,90.00,VWS V14.01,2013-03-02 23:00:00,
2013-03-02 15:02:00,50.3,48.6,30.22,SW,221,0.0,0.0,94,0.01,,---,0.01,65.00,VWS V14.01,2013-03-02 23:02:00,
2013-03-02 15:07:00,50.4,49.0,30.22,SW,221,0.0,0.0,95,0.00,,---,0.01,58.00,VWS V14.01,2013-03-02 23:07:00,
2013-03-02 15:10:00,51.1,49.4,30.21,SW,216,0.0,0.0,94,0.00,,---,0.01,98.00,VWS V14.01,2013-03-02 23:10:00,
2013-03-02 15:12:00,50.4,48.7,30.22,SW,221,0.0,0.0,94,0.00,,---,0.01,56.00,VWS V14.01,2013-03-02 23:12:00,
2013-03-02 15:17:00,50.4,48.7,30.22,SW,221,0.0,0.0,94,0.00,,---,0.01,69.00,VWS V14.01,2013-03-02 23:17:00,
2013-03-02 15:20:00,51.2,49.5,30.21,SW,215,0.0,0.0,94,0.00,,---,0.01,97.00,VWS V14.01,2013-03-02 23:20:00,
2013-03-02 15:22:00,50.4,48.7,30.22,SW,221,0.0,0.0,94,0.00,,---,0.01,90.00,VWS V14.01,2013-03-02 23:22:00,
2013-03-02 15:27:00,50.5,48.8,30.22,SW,221,0.0,0.0,94,0.00,,---,0.01,98.00,VWS V14.01,2013-03-02 23:27:00,
2013-03-02 15:30:00,51.3,49.6,30.21,SW,214,0.0,0.0,94,0.00,,---,0.01,90.00,VWS V14.01,2013-03-02 23:30:00,
2013-03-02 15:32:00,50.7,49.3,30.22,SW,221,0.0,0.0,95,0.00,,---,0.01,83.00,VWS V14.01,2013-03-02 23:32:00,
2013-03-02 15:37:00,50.7,49.0,30.22,SW,218,0.0,0.0,94,0.00,,---,0.01,77.00,VWS V14.01,2013-03-02 23:37:00,
2013-03-02 15:40:00,51.4,49.7,30.20,SSW,209,0.0,0.0,94,0.00,,---,0.01,74.00,VWS V14.01,2013-03-02 23:40:00,
2013-03-02 15:42:00,50.8,49.1,30.22,SW,218,0.0,0.0,94,0.00,,---,0.01,93.00,VWS V14.01,2013-03-02 23:42:00,
2013-03-02 15:47:00,50.9,49.5,30.21,SW,218,0.0,0.0,95,0.00,,---,0.01,98.00,VWS V14.01,2013-03-02 23:47:00,
2013-03-02 15:50:00,51.5,49.8,30.20,SSW,209,0.0,0.0,94,0.00,,---,0.01,49.00,VWS V14.01,2013-03-02 23:50:00,
2013-03-02 15:52:00,50.9,49.2,30.22,SW,216,0.0,0.0,94,0.00,,---,0.01,88.00,VWS V14.01,2013-03-02 23:52:00,
2013-03-02 15:57:00,50.9,49.0,30.21,SW,216,0.0,0.0,93,0.00,,---,0.01,90.00,VWS V14.01,2013-03-02 23:57:00,
2013-03-02 16:00:00,51.5,49.8,30.20,SSW,209,0.0,0.0,94,0.00,,---,0.01,47.00,VWS V14.01,2013-03-03 00:00:00,
2013-03-02 16:02:00,51.0,49.0,30.21,SW,216,0.0,0.0,93,0.00,,---,0.01,93.00,VWS V14.01,2013-03-03 00:02:00,
2013-03-02 16:07:00,51.1,49.4,30.21,SW,216,0.0,0.0,94,0.00,,---,0.01,98.00,VWS V14.01,2013-03-03 00:07:00,
2013-03-02 16:10:00,51.5,49.8,30.20,SSW,209,0.0,0.0,94,0.00,,---,0.01,49.00,VWS V14.01,2013-03-03 00:10:00,
2013-03-02 16:12:00,51.2,49.5,30.21,SW,216,0.0,0.0,94,0.00,,---,0.01,102.00,VWS V14.01,2013-03-03 00:12:00,
2013-03-02 16:17:00,51.2,49.5,30.21,SW,215,0.0,0.0,94,0.00,,---,0.01,97.00,VWS V14.01,2013-03-03 00:17:00,
2013-03-02 16:20:00,51.5,49.8,30.20,SSW,196,0.0,0.0,94,0.00,,---,0.01,42.00,VWS V14.01,2013-03-03 00:20:00,
2013-03-02 16:22:00,51.2,49.5,30.20,SW,215,0.0,0.0,94,0.00,,---,0.01,98.00,VWS V14.01,2013-03-03 00:22:00,
2013-03-02 16:27:00,51.3,49.6,30.21,SSW,213,0.0,0.0,94,0.00,,---,0.01,90.00,VWS V14.01,2013-03-03 00:27:00,
2013-03-02 16:30:00,51.4,49.7,30.20,SSW,196,0.0,0.0,94,0.00,,---,0.01,23.00,VWS V14.01,2013-03-03 00:30:00,
2013-03-02 16:32:00,51.3,49.6,30.20,SSW,209,0.0,0.0,94,0.00,,---,0.01,81.00,VWS V14.01,2013-03-03 00:32:00,
2013-03-02 16:37:00,51.4,49.7,30.20,SSW,209,0.0,0.0,94,0.00,,---,0.01,74.00,VWS V14.01,2013-03-03 00:37:00,
2013-03-02 16:40:00,51.3,49.6,30.20,SSW,196,0.0,0.0,94,0.00,,---,0.01,9.00,VWS V14.01,2013-03-03 00:40:00,
2013-03-02 16:42:00,51.5,49.8,30.20,SSW,209,0.0,0.0,94,0.00,,---,0.01,63.00,VWS V14.01,2013-03-03 00:42:00,
2013-03-02 16:47:00,51.5,49.8,30.20,SSW,209,0.0,0.0,94,0.00,,---,0.01,49.00,VWS V14.01,2013-03-03 00:47:00,
2013-03-02 16:50:00,51.2,49.5,30.21,SSW,196,0.0,0.0,94,0.00,,---,0.01,5.00,VWS V14.01,2013-03-03 00:50:00,
2013-03-02 16:52:00,51.5,49.8,30.20,SSW,209,0.0,0.0,94,0.00,,---,0.01,47.00,VWS V14.01,2013-03-03 00:52:00,
2013-03-02 16:57:00,51.5,49.8,30.20,SSW,209,0.0,0.0,94,0.00,,---,0.01,47.00,VWS V14.01,2013-03-03 00:57:00,
2013-03-02 17:00:00,51.1,49.2,30.20,SW,229,0.0,0.0,93,0.00,,---,0.01,0.00,VWS V14.01,2013-03-03 01:00:00,
2013-03-02 17:02:00,51.5,49.8,30.20,SSW,209,0.0,0.0,94,0.00,,---,0.01,47.00,VWS V14.01,2013-03-03 01:02:00,
2013-03-02 17:07:00,51.5,49.8,30.20,SSW,209,0.0,0.0,94,0.00,,---,0.01,49.00,VWS V14.01,2013-03-03 01:07:00,
2013-03-02 17:10:00,51.1,48.9,30.21,SW,229,0.0,0.0,92,0.00,,---,0.01,0.00,VWS V14.01,2013-03-03 01:10:00,
2013-03-02 17:12:00,51.5,49.8,30.20,SSW,209,0.0,0.0,94,0.00,,---,0.01,47.00,VWS V14.01,2013-03-03 01:12:00,
2013-03-02 17:17:00,51.5,49.8,30.20,SSW,196,0.0,0.0,94,0.00,,---,0.01,40.00,VWS V14.01,2013-03-03 01:17:00,
2013-03-02 17:20:00,51.0,48.8,30.21,SW,229,0.0,0.0,92,0.00,,---,0.01,0.00,VWS V14.01,2013-03-03 01:20:00,
2013-03-02 17:22:00,51.5,49.8,30.20,SSW,196,0.0,0.0,94,0.00,,---,0.01,30.00,VWS V14.01,2013-03-03 01:22:00,
2013-03-02 17:27:00,51.4,49.7,30.20,SSW,196,0.0,0.0,94,0.00,,---,0.01,23.00,VWS V14.01,2013-03-03 01:27:00,
2013-03-02 17:30:00,50.9,48.1,30.21,WSW,254,0.0,0.0,90,0.00,,---,0.01,0.00,VWS V14.01,2013-03-03 01:30:00,
2013-03-02 17:32:00,51.4,49.7,30.20,SSW,196,0.0,0.0,94,0.00,,---,0.01,14.00,VWS V14.01,2013-03-03 01:32:00,
2013-03-02 17:37:00,51.3,49.6,30.20,SSW,196,0.0,0.0,94,0.00,,---,0.01,9.00,VWS V14.01,2013-03-03 01:37:00,
2013-03-02 17:40:00,50.7,48.2,30.21,WSW,258,0.0,0.0,91,0.01,,---,0.02,0.00,VWS V14.01,2013-03-03 01:40:00,
2013-03-02 17:42:00,51.3,49.6,30.20,SSW,196,0.0,0.0,94,0.00,,---,0.01,7.00,VWS V14.01,2013-03-03 01:42:00,
2013-03-02 17:47:00,51.2,49.5,30.21,SSW,196,0.0,0.0,94,0.00,,---,0.01,5.00,VWS V14.01,2013-03-03 01:47:00,
2013-03-02 17:50:00,50.0,47.8,30.21,WSW,240,0.0,0.0,92,0.01,,---,0.02,0.00,VWS V14.01,2013-03-03 01:50:00,
2013-03-02 17:52:00,51.2,49.5,30.20,SSW,196,0.0,0.0,94,0.00,,---,0.01,0.00,VWS V14.01,2013-03-03 01:52:00,
2013-03-02 17:57:00,51.1,49.2,30.20,SW,229,0.0,0.0,93,0.00,,---,0.01,0.00,VWS V14.01,2013-03-03 01:57:00,
2013-03-02 18:00:00,49.9,47.7,30.21,WSW,252,0.0,0.0,92,0.01,,---,0.02,0.00,VWS V14.01,2013-03-03 02:00:00,
2013-03-02 18:02:00,51.1,48.9,30.21,SW,229,0.0,0.0,92,0.00,,---,0.01,0.00,VWS V14.01,2013-03-03 02:02:00,
2013-03-02 18:07:00,51.1,48.9,30.21,SW,229,0.0,0.0,92,0.00,,---,0.01,0.00,VWS V14.01,2013-03-03 02:07:00,
2013-03-02 18:10:00,49.6,47.4,30.21,SW,225,0.0,0.0,92,0.01,,---,0.02,0.00,VWS V14.01,2013-03-03 02:10:00,
2013-03-02 18:12:00,51.1,48.9,30.21,SW,229,0.0,0.0,92,0.00,,---,0.01,0.00,VWS V14.01,2013-03-03 02:12:00,
2013-03-02 18:17:00,51.0,48.8,30.21,SW,229,0.0,0.0,92,0.00,,---,0.01,0.00,VWS V14.01,2013-03-03 02:17:00,
2013-03-02 18:20:00,49.3,47.4,30.21,WSW,246,0.0,0.0,93,0.02,,---,0.03,0.00,VWS V14.01,2013-03-03 02:20:00,
2013-03-02 18:22:00,51.0,48.8,30.21,SW,229,0.0,0.0,92,0.00,,---,0.01,0.00,VWS V14.01,2013-03-03 02:22:00,
2013-03-02 18:27:00,50.9,48.1,30.21,WSW,246,0.0,0.0,90,0.00,,---,0.01,0.00,VWS V14.01,2013-03-03 02:27:00,
2013-03-02 18:30:00,49.3,47.4,30.22,West,261,0.0,0.0,93,0.02,,---,0.03,0.00,VWS V14.01,2013-03-03 02:30:00,
2013-03-02 18:32:00,50.9,48.1,30.22,SW,221,0.0,0.0,90,0.01,,---,0.02,0.00,VWS V14.01,2013-03-03 02:32:00,
2013-03-02 18:37:00,50.7,48.2,30.22,West,259,0.0,0.0,91,0.01,,---,0.02,0.00,VWS V14.01,2013-03-03 02:37:00,
2013-03-02 18:40:00,49.1,47.2,30.22,WSW,249,0.0,0.0,93,0.02,,---,0.03,0.00,VWS V14.01,2013-03-03 02:40:00,
2013-03-02 18:42:00,50.3,47.8,30.22,WSW,248,0.0,0.0,91,0.01,,---,0.02,0.00,VWS V14.01,2013-03-03 02:42:00,
2013-03-02 18:47:00,50.0,47.8,30.22,WSW,240,0.0,0.0,92,0.01,,---,0.02,0.00,VWS V14.01,2013-03-03 02:47:00,
2013-03-02 18:50:00,48.3,45.5,30.22,NNW,330,0.0,0.0,90,0.01,,---,0.03,0.00,VWS V14.01,2013-03-03 02:50:00,
2013-03-02 18:52:00,49.8,47.6,30.21,West,266,0.0,0.0,92,0.01,,---,0.02,0.00,VWS V14.01,2013-03-03 02:52:00,
2013-03-02 18:57:00,49.9,47.7,30.21,SW,228,0.0,0.0,92,0.01,,---,0.02,0.00,VWS V14.01,2013-03-03 02:57:00,
2013-03-02 19:00:00,47.0,43.9,30.22,NW,310,0.0,0.0,89,0.01,,---,0.03,0.00,VWS V14.01,2013-03-03 03:00:00,
2013-03-02 19:02:00,49.8,47.6,30.21,WSW,244,0.0,0.0,92,0.01,,---,0.02,0.00,VWS V14.01,2013-03-03 03:02:00,
2013-03-02 19:07:00,49.6,47.4,30.21,SW,234,0.0,0.0,92,0.01,,---,0.02,0.00,VWS V14.01,2013-03-03 03:07:00,
2013-03-02 19:10:00,46.8,43.1,30.22,WNW,300,0.0,0.0,87,0.01,,---,0.03,0.00,VWS V14.01,2013-03-03 03:10:00,
2013-03-02 19:12:00,49.5,47.6,30.21,SW,229,0.0,0.0,93,0.02,,---,0.03,0.00,VWS V14.01,2013-03-03 03:12:00,
2013-03-02 19:17:00,49.3,47.4,30.22,SW,227,0.0,0.0,93,0.02,,---,0.03,0.00,VWS V14.01,2013-03-03 03:17:00,
2013-03-02 19:20:00,46.8,42.8,30.22,West,281,0.0,0.0,86,0.01,,---,0.03,0.00,VWS V14.01,2013-03-03 03:20:00,
2013-03-02 19:22:00,49.2,47.3,30.22,West,266,0.0,0.0,93,0.02,,---,0.03,0.00,VWS V14.01,2013-03-03 03:22:00,
2013-03-02 19:27:00,49.3,47.4,30.21,West,261,0.0,0.0,93,0.02,,---,0.03,0.00,VWS V14.01,2013-03-03 03:27:00,
2013-03-02 19:30:00,46.6,42.3,30.23,NW,314,0.0,0.0,85,0.00,,---,0.03,0.00,VWS V14.01,2013-03-03 03:30:00,
2013-03-02 19:32:00,49.2,47.3,30.22,WSW,249,0.0,0.0,93,0.02,,---,0.03,0.00,VWS V14.01,2013-03-03 03:32:00,
2013-03-02 19:37:00,49.1,47.2,30.22,WSW,249,0.0,0.0,93,0.01,,---,0.03,0.00,VWS V14.01,2013-03-03 03:37:00,
2013-03-02 19:40:00,46.1,42.2,30.23,NW,307,0.0,0.0,86,0.00,,---,0.03,0.00,VWS V14.01,2013-03-03 03:40:00,
2013-03-02 19:42:00,49.0,47.1,30.22,NNW,336,0.0,0.0,93,0.01,,---,0.03,0.00,VWS V14.01,2013-03-03 03:42:00,
2013-03-02 19:47:00,48.2,45.4,30.22,NW,318,0.0,0.0,90,0.01,,---,0.03,0.00,VWS V14.01,2013-03-03 03:47:00,
2013-03-02 19:50:00,45.5,41.3,30.23,NNW,345,0.0,0.0,85,0.00,,---,0.03,0.00,VWS V14.01,2013-03-03 03:50:00,
2013-03-02 19:52:00,47.4,44.3,30.22,WNW,296,0.0,0.0,89,0.01,,---,0.03,0.00,VWS V14.01,2013-03-03 03:52:00,
2013-03-02 19:57:00,47.0,43.9,30.22,WNW,300,0.0,0.0,89,0.01,,---,0.03,0.00,VWS V14.01,2013-03-03 03:57:00,
2013-03-02 20:00:00,45.2,41.0,30.24,WNW,300,0.0,0.0,85,0.00,,---,0.03,0.00,VWS V14.01,2013-03-03 04:00:00,
2013-03-02 20:02:00,46.7,43.3,30.22,NW,317,0.0,0.0,88,0.01,,---,0.03,0.00,VWS V14.01,2013-03-03 04:02:00,
2013-03-02 20:07:00,46.8,43.1,30.22,WNW,296,0.0,0.0,87,0.01,,---,0.03,0.00,VWS V14.01,2013-03-03 04:07:00,
2013-03-02 20:10:00,45.0,40.8,30.25,WNW,300,0.0,0.0,85,0.01,,---,0.04,0.00,VWS V14.01,2013-03-03 04:10:00,
2013-03-02 20:12:00,46.8,43.1,30.22,NW,313,0.0,0.0,87,0.01,,---,0.03,0.00,VWS V14.01,2013-03-03 04:12:00,
2013-03-02 20:17:00,46.8,42.8,30.22,WNW,296,0.0,0.0,86,0.00,,---,0.03,0.00,VWS V14.01,2013-03-03 04:17:00,
2013-03-02 20:20:00,44.9,40.4,30.25,NW,311,0.0,0.0,84,0.01,,---,0.04,0.00,VWS V14.01,2013-03-03 04:20:00,
2013-03-02 20:22:00,46.8,42.2,30.23,NW,306,0.0,0.0,84,0.00,,---,0.03,0.00,VWS V14.01,2013-03-03 04:22:00,
2013-03-02 20:27:00,46.6,42.3,30.23,WNW,293,0.0,0.0,85,0.00,,---,0.03,0.00,VWS V14.01,2013-03-03 04:27:00,
2013-03-02 20:30:00,45.0,40.2,30.25,WNW,295,6.0,16.0,83,0.01,,---,0.04,0.00,VWS V14.01,2013-03-03 04:30:00,
2013-03-02 20:32:00,46.4,42.1,30.23,NW,316,0.0,0.0,85,0.00,,---,0.03,0.00,VWS V14.01,2013-03-03 04:32:00,
2013-03-02 20:37:00,46.1,42.2,30.23,WNW,297,0.0,0.0,86,0.00,,---,0.03,0.00,VWS V14.01,2013-03-03 04:37:00,
2013-03-02 20:40:00,45.1,39.9,30.26,WNW,287,0.0,13.0,82,0.01,,---,0.04,0.00,VWS V14.01,2013-03-03 04:40:00,
2013-03-02 20:42:00,45.8,41.5,30.23,NW,304,0.0,0.0,85,0.00,,---,0.03,0.00,VWS V14.01,2013-03-03 04:42:00,
2013-03-02 20:47:00,45.5,41.3,30.24,NNW,331,0.0,0.0,85,0.00,,---,0.03,0.00,VWS V14.01,2013-03-03 04:47:00,
2013-03-02 20:50:00,45.1,39.6,30.26,NNW,333,0.0,0.0,81,0.01,,---,0.04,0.00,VWS V14.01,2013-03-03 04:50:00,
2013-03-02 20:52:00,45.3,41.4,30.24,NNW,333,0.0,0.0,86,0.00,,---,0.03,0.00,VWS V14.01,2013-03-03 04:52:00,
2013-03-02 20:57:00,45.2,41.0,30.24,WNW,303,0.0,0.0,85,0.00,,---,0.03,0.00,VWS V14.01,2013-03-03 04:57:00,
2013-03-02 21:00:00,45.1,40.9,30.24,WNW,302,0.0,0.0,85,0.00,,---,0.03,0.00,VWS V14.01,2013-03-03 05:00:00,
2013-03-02 21:05:00,45.0,40.5,30.24,WNW,291,0.0,0.0,84,0.01,,---,0.04,0.00,VWS V14.01,2013-03-03 05:05:00,
2013-03-02 21:10:00,45.0,40.5,30.24,WNW,295,0.0,0.0,84,0.01,,---,0.04,0.00,VWS V14.01,2013-03-03 05:10:00,
2013-03-02 21:15:00,44.9,40.4,30.24,NW,316,0.0,0.0,84,0.01,,---,0.04,0.00,VWS V14.01,2013-03-03 05:15:00,
2013-03-02 21:20:00,45.0,40.2,30.25,West,281,0.0,0.0,83,0.01,,---,0.04,0.00,VWS V14.01,2013-03-03 05:20:00,
2013-03-02 21:25:00,45.1,40.2,30.25,NW,306,3.0,16.0,83,0.01,,---,0.04,0.00,VWS V14.01,2013-03-03 05:25:00,
2013-03-02 21:30:00,45.1,39.9,30.25,NW,309,9.0,12.0,82,0.01,,---,0.04,0.00,VWS V14.01,2013-03-03 05:30:00,
2013-03-02 21:35:00,45.1,39.9,30.26,NW,306,5.0,13.0,82,0.01,,---,0.04,0.00,VWS V14.01,2013-03-03 05:35:00,
2013-03-02 21:40:00,45.1,39.9,30.26,NW,304,0.0,0.0,82,0.01,,---,0.04,0.00,VWS V14.01,2013-03-03 05:40:00,
2013-03-02 21:45:00,45.1,39.6,30.26,NNW,336,0.0,0.0,81,0.01,,---,0.04,0.00,VWS V14.01,2013-03-03 05:45:00,
2013-03-02 21:50:00,45.0,39.5,30.26,NNW,345,0.0,0.0,81,0.01,,---,0.04,0.00,VWS V14.01,2013-03-03 05:50:00,
2013-03-02 21:55:00,45.2,39.4,30.26,WNW,303,0.0,0.0,80,0.01,,---,0.04,0.00,VWS V14.01,2013-03-03 05:55:00,
2013-03-02 22:00:00,45.1,39.6,30.27,NW,314,0.0,0.0,81,0.01,,---,0.04,0.00,VWS V14.01,2013-03-03 06:00:00,
2013-03-02 22:05:00,44.9,39.4,30.27,WNW,283,0.0,0.0,81,0.01,,---,0.04,0.00,VWS V14.01,2013-03-03 06:05:00,
2013-03-02 22:10:00,44.9,39.4,30.27,WNW,301,0.0,0.0,81,0.00,,---,0.04,0.00,VWS V14.01,2013-03-03 06:10:00,
2013-03-02 22:15:00,44.9,39.4,30.27,WNW,295,0.0,0.0,81,0.00,,---,0.04,0.00,VWS V14.01,2013-03-03 06:15:00,
2013-03-02 22:20:00,44.8,39.7,30.27,WNW,300,0.0,0.0,82,0.00,,---,0.04,0.00,VWS V14.01,2013-03-03 06:20:00,
2013-03-02 22:25:00,44.8,39.3,30.27,NW,317,0.0,0.0,81,0.00,,---,0.04,0.00,VWS V14.01,2013-03-03 06:25:00,
2013-03-02 22:30:00,44.7,39.2,30.26,NW,325,0.0,0.0,81,0.00,,---,0.04,0.00,VWS V14.01,2013-03-03 06:30:00,
2013-03-02 22:35:00,44.6,39.5,30.26,NW,321,0.0,0.0,82,0.00,,---,0.04,0.00,VWS V14.01,2013-03-03 06:35:00,
2013-03-02 22:40:00,44.5,39.4,30.26,NW,317,0.0,0.0,82,0.00,,---,0.04,0.00,VWS V14.01,2013-03-03 06:40:00,
2013-03-02 22:45:00,44.4,39.3,30.27,WNW,302,0.0,0.0,82,0.00,,---,0.04,0.00,VWS V14.01,2013-03-03 06:45:00,
2013-03-02 22:50:00,44.3,39.2,30.27,NNW,329,0.0,0.0,82,0.00,,---,0.04,0.00,VWS V14.01,2013-03-03 06:50:00,
2013-03-02 22:55:00,44.2,39.1,30.26,NW,317,0.0,0.0,82,0.00,,---,0.04,0.00,VWS V14.01,2013-03-03 06:55:00,
2013-03-02 23:00:00,44.1,39.0,30.27,North,10,0.0,0.0,82,0.00,,---,0.04,0.00,VWS V14.01,2013-03-03 07:00:00,
2013-03-02 23:05:00,44.0,39.5,30.26,North,10,0.0,0.0,84,0.00,,---,0.04,0.00,VWS V14.01,2013-03-03 07:05:00,
2013-03-02 23:10:00,43.9,39.7,30.26,North,10,0.0,0.0,85,0.00,,---,0.04,0.00,VWS V14.01,2013-03-03 07:10:00,
2013-03-02 23:15:00,43.6,39.7,30.27,North,10,0.0,0.0,86,0.00,,---,0.04,0.00,VWS V14.01,2013-03-03 07:15:00,
2013-03-02 23:20:00,43.3,39.4,30.27,NNE,28,0.0,0.0,86,0.00,,---,0.04,0.00,VWS V14.01,2013-03-03 07:20:00,
2013-03-02 23:25:00,43.1,39.2,30.27,NNE,13,0.0,0.0,86,0.00,,---,0.04,0.00,VWS V14.01,2013-03-03 07:25:00,
2013-03-02 23:30:00,43.0,39.1,30.27,NNE,24,0.0,0.0,86,0.00,,---,0.04,0.00,VWS V14.01,2013-03-03 07:30:00,
2013-03-02 23:35:00,42.9,39.0,30.27,North,5,0.0,0.0,86,0.00,,---,0.04,0.00,VWS V14.01,2013-03-03 07:35:00,
2013-03-02 23:40:00,42.9,39.0,30.27,North,5,0.0,0.0,86,0.00,,---,0.04,0.00,VWS V14.01,2013-03-03 07:40:00,
2013-03-02 23:45:00,42.8,38.9,30.28,North,5,0.0,0.0,86,0.00,,---,0.04,0.00,VWS V14.01,2013-03-03 07:45:00,
2013-03-02 23:50:00,42.6,38.7,30.27,North,360,0.0,0.0,86,0.00,,---,0.04,0.00,VWS V14.01,2013-03-03 07:50:00,
2013-03-02 23:55:00,42.4,38.2,30.28,North,360,0.0,0.0,85,0.00,,---,0.04,0.00,VWS V14.01,2013-03-03 07:55:00,